• In Deutschland
  • Länderverzeichnis
  • Für 7 Tage
  • Wassertemperatur
  • Satellitenkarten
  • Wetterkarte
  • Widgets
  • user-avatar
    Anmelden

    Stündliche Wetter Canillo

    Heute, 27 Juni, Dienstag

    Zeit Temperatur Niederschläge Wind Luftdruck Luftfeuchtigkeit
    00:00 +8°C° 0 mm 0 m/S 616 mmHg 86%
    01:00 +8°C° 0 mm 0 m/S 616 mmHg 87%
    02:00 +8°C° 0 mm 1 m/S 616 mmHg 87%
    03:00 +8°C° 0 mm 1 m/S 615 mmHg 87%
    04:00 +10°C° 0 mm 1 m/S 616 mmHg 83%
    05:00 +12°C° 0 mm 1 m/S 617 mmHg 78%
    06:00 +13°C° 0 mm 1 m/S 617 mmHg 74%
    07:00 +15°C° 0 mm 1 m/S 618 mmHg 65%
    08:00 +18°C° 0 mm 2 m/S 619 mmHg 56%
    09:00 +20°C° 0 mm 3 m/S 619 mmHg 46%
    10:00 +21°C° 0,1 mm 3 m/S 619 mmHg 43%
    11:00 +22°C° 0,1 mm 4 m/S 619 mmHg 40%
    12:00 +23°C° 0,1 mm 4 m/S 619 mmHg 37%
    13:00 +22°C° 0,6 mm 4 m/S 619 mmHg 44%
    14:00 +21°C° 0,6 mm 4 m/S 618 mmHg 51%
    15:00 +20°C° 0,6 mm 3 m/S 617 mmHg 57%
    16:00 +19°C° 1,3 mm 3 m/S 616 mmHg 62%
    17:00 +18°C° 1,3 mm 2 m/S 616 mmHg 67%
    18:00 +16°C° 1,3 mm 2 m/S 615 mmHg 72%
    19:00 +14°C° 0,4 mm 2 m/S 614 mmHg 77%
    20:00 +12°C° 0,4 mm 1 m/S 614 mmHg 81%
    21:00 +10°C° 0,4 mm 1 m/S 613 mmHg 86%
    22:00 +10°C° 0 mm 1 m/S 613 mmHg 87%
    23:00 +9°C° 0 mm 1 m/S 613 mmHg 88%

    Morgen, 28 Juni, Mittwoch

    Zeit Temperatur Niederschläge Wind Luftdruck Luftfeuchtigkeit
    00:00 +8°C° 0 mm 1 m/S 613 mmHg 90%
    01:00 +8°C° 0 mm 1 m/S 613 mmHg 90%
    02:00 +8°C° 0 mm 1 m/S 613 mmHg 91%
    03:00 +7°C° 0 mm 1 m/S 612 mmHg 91%
    04:00 +8°C° 0,1 mm 1 m/S 613 mmHg 89%
    05:00 +9°C° 0,1 mm 1 m/S 613 mmHg 87%
    06:00 +10°C° 0,1 mm 1 m/S 614 mmHg 85%
    07:00 +11°C° 0,3 mm 1 m/S 614 mmHg 81%
    08:00 +12°C° 0,3 mm 2 m/S 614 mmHg 76%
    09:00 +12°C° 0,3 mm 3 m/S 615 mmHg 71%
    10:00 +12°C° 0,5 mm 3 m/S 615 mmHg 68%
    11:00 +13°C° 0,5 mm 3 m/S 615 mmHg 64%
    12:00 +14°C° 0,5 mm 3 m/S 614 mmHg 61%
    13:00 +14°C° 0,9 mm 3 m/S 614 mmHg 62%
    14:00 +14°C° 0,9 mm 4 m/S 614 mmHg 62%
    15:00 +14°C° 0,9 mm 4 m/S 614 mmHg 62%
    16:00 +13°C° 1,2 mm 4 m/S 614 mmHg 65%
    17:00 +12°C° 1,2 mm 3 m/S 614 mmHg 67%
    18:00 +12°C° 1,2 mm 2 m/S 613 mmHg 69%
    19:00 +10°C° 0,3 mm 2 m/S 613 mmHg 74%
    20:00 +8°C° 0,3 mm 2 m/S 613 mmHg 80%
    21:00 +7°C° 0,3 mm 2 m/S 613 mmHg 85%
    22:00 +6°C° 0,1 mm 2 m/S 613 mmHg 86%
    23:00 +6°C° 0,1 mm 2 m/S 613 mmHg 87%

    übermorgen, 29 Juni, Donnerstag

    Zeit Temperatur Niederschläge Wind Luftdruck Luftfeuchtigkeit
    00:00 +5°C° 0,1 mm 2 m/S 613 mmHg 89%
    01:00 +5°C° 0 mm 2 m/S 612 mmHg 89%
    02:00 +4°C° 0 mm 2 m/S 612 mmHg 90%
    03:00 +4°C° 0 mm 2 m/S 612 mmHg 90%
    04:00 +4°C° 0 mm 2 m/S 613 mmHg 88%
    05:00 +5°C° 0 mm 2 m/S 613 mmHg 85%
    06:00 +6°C° 0 mm 2 m/S 614 mmHg 82%
    07:00 +7°C° 0 mm 2 m/S 614 mmHg 74%
    08:00 +9°C° 0 mm 2 m/S 615 mmHg 66%
    09:00 +10°C° 0 mm 2 m/S 616 mmHg 58%
    10:00 +11°C° 0,2 mm 3 m/S 616 mmHg 57%
    11:00 +11°C° 0,2 mm 3 m/S 616 mmHg 56%
    12:00 +11°C° 0,2 mm 3 m/S 616 mmHg 55%
    13:00 +12°C° 0,4 mm 4 m/S 616 mmHg 53%
    14:00 +12°C° 0,4 mm 4 m/S 616 mmHg 51%
    15:00 +12°C° 0,4 mm 4 m/S 616 mmHg 49%
    16:00 +12°C° 0,6 mm 3 m/S 616 mmHg 53%
    17:00 +11°C° 0,6 mm 3 m/S 616 mmHg 57%
    18:00 +10°C° 0,6 mm 2 m/S 616 mmHg 60%
    19:00 +7°C° 0,3 mm 2 m/S 615 mmHg 68%
    20:00 +6°C° 0,3 mm 1 m/S 614 mmHg 76%
    21:00 +4°C° 0,3 mm 1 m/S 614 mmHg 84%
    22:00 +3°C° 0 mm 1 m/S 614 mmHg 84%
    23:00 +3°C° 0 mm 1 m/S 614 mmHg 85%

    30 Juni, Freitag

    Zeit Temperatur Niederschläge Wind Luftdruck Luftfeuchtigkeit
    00:00 +2°C° 0 mm 1 m/S 613 mmHg 86%
    01:00 +2°C° 0 mm 1 m/S 613 mmHg 86%
    02:00 +1°C° 0 mm 1 m/S 613 mmHg 85%
    03:00 +1°C° 0 mm 1 m/S 613 mmHg 85%
    04:00 +3°C° 0 mm 1 m/S 614 mmHg 80%
    05:00 +5°C° 0 mm 1 m/S 615 mmHg 74%
    06:00 +6°C° 0 mm 1 m/S 615 mmHg 69%
    07:00 +7°C° 0 mm 2 m/S 616 mmHg 60%
    08:00 +9°C° 0 mm 2 m/S 617 mmHg 51%
    09:00 +11°C° 0 mm 3 m/S 618 mmHg 42%
    10:00 +12°C° 0 mm 3 m/S 618 mmHg 40%
    11:00 +13°C° 0 mm 4 m/S 618 mmHg 38%
    12:00 +14°C° 0 mm 4 m/S 619 mmHg 36%
    13:00 +14°C° 0,4 mm 4 m/S 619 mmHg 39%
    14:00 +14°C° 0,4 mm 3 m/S 618 mmHg 41%
    15:00 +13°C° 0,4 mm 3 m/S 618 mmHg 44%
    16:00 +12°C° 0,6 mm 3 m/S 618 mmHg 49%
    17:00 +13°C° 0,6 mm 2 m/S 618 mmHg 55%
    18:00 +12°C° 0,6 mm 2 m/S 618 mmHg 60%
    19:00 +8°C° 0,2 mm 2 m/S 617 mmHg 68%
    20:00 +6°C° 0,2 mm 2 m/S 617 mmHg 76%
    21:00 +5°C° 0,2 mm 1 m/S 617 mmHg 83%
    22:00 +5°C° 0 mm 1 m/S 617 mmHg 85%
    23:00 +5°C° 0 mm 1 m/S 616 mmHg 88%

    1 Juli, Samstag

    Zeit Temperatur Niederschläge Wind Luftdruck Luftfeuchtigkeit
    00:00 +4°C° 0 mm 1 m/S 616 mmHg 90%
    01:00 +4°C° 0 mm 1 m/S 616 mmHg 90%
    02:00 +4°C° 0 mm 1 m/S 616 mmHg 90%
    03:00 +3°C° 0 mm 1 m/S 616 mmHg 91%
    04:00 +5°C° 0 mm 1 m/S 617 mmHg 87%
    05:00 +6°C° 0 mm 1 m/S 618 mmHg 84%
    06:00 +7°C° 0 mm 1 m/S 619 mmHg 80%
    07:00 +9°C° 0 mm 1 m/S 620 mmHg 72%
    08:00 +11°C° 0 mm 1 m/S 621 mmHg 63%
    09:00 +13°C° 0 mm 2 m/S 622 mmHg 55%
    10:00 +13°C° 0,4 mm 2 m/S 622 mmHg 58%
    11:00 +13°C° 0,4 mm 2 m/S 622 mmHg 60%
    12:00 +12°C° 0,4 mm 3 m/S 622 mmHg 63%
    13:00 +12°C° 0,6 mm 3 m/S 622 mmHg 64%
    14:00 +12°C° 0,6 mm 3 m/S 622 mmHg 66%
    15:00 +12°C° 0,6 mm 3 m/S 622 mmHg 68%
    16:00 +12°C° 0,4 mm 3 m/S 622 mmHg 72%
    17:00 +11°C° 0,4 mm 3 m/S 622 mmHg 76%
    18:00 +10°C° 0,4 mm 3 m/S 622 mmHg 80%
    19:00 +9°C° 0,3 mm 3 m/S 622 mmHg 84%
    20:00 +8°C° 0,3 mm 3 m/S 622 mmHg 87%
    21:00 +7°C° 0,3 mm 3 m/S 622 mmHg 91%
    22:00 +5°C° 0,2 mm 3 m/S 622 mmHg 91%
    23:00 +5°C° 0,2 mm 3 m/S 622 mmHg 92%

    2 Juli, Sonntag

    Zeit Temperatur Niederschläge Wind Luftdruck Luftfeuchtigkeit
    00:00 +5°C° 0,2 mm 3 m/S 622 mmHg 93%
    01:00 +6°C° 0,1 mm 2 m/S 622 mmHg 92%
    02:00 +6°C° 0,1 mm 2 m/S 622 mmHg 92%
    03:00 +6°C° 0,1 mm 2 m/S 622 mmHg 92%
    04:00 +6°C° 0 mm 2 m/S 622 mmHg 90%
    05:00 +7°C° 0 mm 2 m/S 623 mmHg 88%
    06:00 +7°C° 0 mm 2 m/S 623 mmHg 86%
    07:00 +9°C° 0 mm 2 m/S 624 mmHg 78%
    08:00 +11°C° 0 mm 3 m/S 625 mmHg 70%
    09:00 +12°C° 0 mm 3 m/S 625 mmHg 63%
    10:00 +14°C° 0 mm 3 m/S 626 mmHg 57%
    11:00 +16°C° 0 mm 3 m/S 626 mmHg 51%
    12:00 +18°C° 0 mm 3 m/S 627 mmHg 45%
    13:00 +18°C° 0 mm 3 m/S 626 mmHg 44%
    14:00 +18°C° 0 mm 3 m/S 626 mmHg 44%
    15:00 +19°C° 0 mm 3 m/S 626 mmHg 43%
    16:00 +18°C° 0 mm 3 m/S 626 mmHg 48%
    17:00 +16°C° 0 mm 3 m/S 625 mmHg 53%
    18:00 +14°C° 0 mm 3 m/S 625 mmHg 59%
    19:00 +12°C° 0 mm 3 m/S 624 mmHg 67%
    20:00 +10°C° 0 mm 2 m/S 624 mmHg 76%
    21:00 +7°C° 0 mm 2 m/S 623 mmHg 85%
    22:00 +7°C° 0 mm 2 m/S 623 mmHg 84%
    23:00 +7°C° 0 mm 2 m/S 623 mmHg 83%
    Mehr zeigen